OAL320 LMML-LGKR

Flight info

Callsign OAL320
Flight time 1h 7m
Altitude 37000
Route VESOD L30 PESAR DCT SODMO DCT AMREX DCT DINOB DCT IDIMI
Aircraft A20N/M-SDE2E3FGHIRWXY/LB1

Departure

Time 2026-05-05 14:35
Airport Malta International Airport (LMML)

Arrival

Time 2026-05-05 15:42
Airport Corfu Ioannis Kapodistrias International Airport (LGKR)
Time Latitude Longitude Altitude Speed Heading
2026-05-05 14:22 35.85505 14.48409 260 ft 0 kts
2026-05-05 14:26 35.85503 14.48409 260 ft 1 kts
2026-05-05 14:26 35.85495 14.48408 260 ft 1 kts
2026-05-05 14:26 35.85488 14.48408 260 ft 1 kts
2026-05-05 14:27 35.85480 14.48407 260 ft 1 kts
2026-05-05 14:27 35.85472 14.48407 260 ft 1 kts
2026-05-05 14:27 35.85464 14.48406 260 ft 1 kts
2026-05-05 14:27 35.85457 14.48406 260 ft 1 kts
2026-05-05 14:28 35.85453 14.48406 260 ft 0 kts
2026-05-05 14:30 35.85462 14.48402 260 ft 2 kts 328°
2026-05-05 14:30 35.85476 14.48377 260 ft 5 kts 299°
2026-05-05 14:30 35.85503 14.48333 261 ft 8 kts 313°
2026-05-05 14:31 35.85548 14.48274 261 ft 11 kts 315°
2026-05-05 14:31 35.85606 14.48219 261 ft 10 kts 340°
2026-05-05 14:31 35.85661 14.48176 261 ft 9 kts 275°
2026-05-05 14:31 35.85661 14.48100 262 ft 0 kts 270°
2026-05-05 14:32 35.85661 14.48091 262 ft 4 kts 269°
2026-05-05 14:32 35.85660 14.48029 262 ft 10 kts 269°
2026-05-05 14:33 35.85664 14.47944 263 ft 11 kts 239°
2026-05-05 14:33 35.85632 14.47901 263 ft 7 kts 201°
2026-05-05 14:33 35.85616 14.47921 263 ft 4 kts 121°
2026-05-05 14:33 35.85605 14.47934 263 ft 0 kts 137°
2026-05-05 14:34 35.85567 14.47979 263 ft 30 kts 135°
2026-05-05 14:34 35.85253 14.48368 260 ft 95 kts 135°
2026-05-05 14:34 35.84663 14.49097 253 ft 143 kts 135°
2026-05-05 14:34 35.83884 14.50004 631 ft 153 kts 138°
2026-05-05 14:35 35.83045 14.50811 1265 ft 154 kts 146°
2026-05-05 14:35 35.82103 14.51456 1881 ft 156 kts 159°
2026-05-05 14:35 35.81051 14.51785 2499 ft 158 kts 175°
2026-05-05 14:35 35.79907 14.51804 2916 ft 173 kts 181°
2026-05-05 14:36 35.78630 14.51759 3248 ft 194 kts 174°
2026-05-05 14:36 35.77393 14.52581 3545 ft 221 kts 130°
2026-05-05 14:36 35.76848 14.54444 3947 ft 251 kts 90°
2026-05-05 14:36 35.77396 14.56553 4564 ft 271 kts 53°
2026-05-05 14:37 35.78900 14.57922 5535 ft 274 kts 19°
2026-05-05 14:37 35.80773 14.58401 6540 ft 276 kts
2026-05-05 14:37 35.82690 14.58308 7448 ft 279 kts 343°
2026-05-05 14:37 35.84391 14.57179 8359 ft 281 kts 316°
2026-05-05 14:38 35.85600 14.55292 9302 ft 282 kts 301°
2026-05-05 14:38 35.86635 14.53226 10222 ft 284 kts 299°
2026-05-05 14:38 35.87642 14.51157 11097 ft 286 kts 299°
2026-05-05 14:38 35.88693 14.49059 12008 ft 288 kts 300°
2026-05-05 14:39 35.89768 14.46972 12923 ft 289 kts 301°
2026-05-05 14:39 35.90863 14.44888 13888 ft 289 kts 301°
2026-05-05 14:39 35.91958 14.42818 14752 ft 288 kts 301°
2026-05-05 14:39 35.93059 14.40766 15632 ft 286 kts 304°
2026-05-05 14:40 35.94519 14.39154 16537 ft 286 kts 329°
2026-05-05 14:40 35.96428 14.38470 17476 ft 287 kts 355°
2026-05-05 14:40 35.98381 14.38881 18427 ft 286 kts 21°
2026-05-05 14:40 35.99980 14.40292 19236 ft 284 kts 47°
2026-05-05 14:41 36.00988 14.42403 19784 ft 290 kts 66°
2026-05-05 14:41 36.01716 14.44797 20026 ft 308 kts 69°
2026-05-05 14:41 36.02454 14.47364 20186 ft 326 kts 69°
2026-05-05 14:41 36.03272 14.50066 20350 ft 345 kts 68°
2026-05-05 14:42 36.04176 14.52892 20523 ft 363 kts 67°
2026-05-05 14:42 36.05153 14.55851 20696 ft 381 kts 66°
2026-05-05 14:42 36.06188 14.58944 20848 ft 398 kts 66°
2026-05-05 14:42 36.07268 14.62165 21036 ft 414 kts 66°
2026-05-05 14:43 36.08382 14.65488 21439 ft 422 kts 66°
2026-05-05 14:43 36.09506 14.68850 22031 ft 425 kts 66°
2026-05-05 14:43 36.10640 14.72247 22596 ft 429 kts 66°
2026-05-05 14:43 36.11781 14.75669 23155 ft 433 kts 66°
2026-05-05 14:44 36.12930 14.79118 23694 ft 437 kts 66°
2026-05-05 14:44 36.14093 14.82615 24179 ft 440 kts 66°
2026-05-05 14:44 36.15258 14.86122 24660 ft 442 kts 66°
2026-05-05 14:44 36.16430 14.89652 25146 ft 445 kts 66°
2026-05-05 14:45 36.17609 14.93210 25596 ft 448 kts 66°
2026-05-05 14:45 36.18796 14.96797 26052 ft 451 kts 66°
2026-05-05 14:45 36.19970 15.00349 26500 ft 453 kts 66°
2026-05-05 14:45 36.21167 15.03974 26933 ft 456 kts 66°
2026-05-05 14:46 36.22370 15.07623 27349 ft 459 kts 66°
2026-05-05 14:46 36.23577 15.11288 27770 ft 461 kts 66°
2026-05-05 14:46 36.24792 15.14982 28165 ft 464 kts 66°
2026-05-05 14:46 36.26010 15.18689 28565 ft 467 kts 66°
2026-05-05 14:47 36.27236 15.22426 28947 ft 469 kts 66°
2026-05-05 14:47 36.28467 15.26183 29300 ft 472 kts 66°
2026-05-05 14:47 36.29704 15.29960 29662 ft 474 kts 66°
2026-05-05 14:47 36.30946 15.33761 30002 ft 477 kts 66°
2026-05-05 14:48 36.32196 15.37590 30332 ft 479 kts 66°
2026-05-05 14:48 36.33448 15.41431 30637 ft 482 kts 65°
2026-05-05 14:48 36.34705 15.45291 30937 ft 484 kts 66°
2026-05-05 14:48 36.35968 15.49175 31262 ft 486 kts 66°
2026-05-05 14:49 36.37228 15.53056 31644 ft 486 kts 66°
2026-05-05 14:49 36.38489 15.56949 32049 ft 485 kts 66°
2026-05-05 14:49 36.39746 15.60829 32441 ft 485 kts 66°
2026-05-05 14:49 36.41001 15.64711 32823 ft 484 kts 66°
2026-05-05 14:50 36.42254 15.68588 33198 ft 484 kts 66°
2026-05-05 14:50 36.43504 15.72464 33571 ft 483 kts 65°
2026-05-05 14:50 36.44752 15.76340 33920 ft 483 kts 66°
2026-05-05 14:50 36.45981 15.80159 34241 ft 483 kts 66°
2026-05-05 14:51 36.47225 15.84032 34535 ft 482 kts 65°
2026-05-05 14:51 36.48485 15.87958 34817 ft 482 kts 65°
2026-05-05 14:51 36.49902 15.91713 35091 ft 479 kts 57°
2026-05-05 14:51 36.51642 15.95155 35345 ft 475 kts 50°
2026-05-05 14:52 36.53675 15.98380 35607 ft 473 kts 47°
2026-05-05 14:52 36.55728 16.01544 35872 ft 473 kts 47°
2026-05-05 14:52 36.57794 16.04750 36138 ft 472 kts 47°
2026-05-05 14:52 36.59846 16.07941 36396 ft 472 kts 47°
2026-05-05 14:53 36.61895 16.11130 36646 ft 471 kts 47°
2026-05-05 14:53 36.63939 16.14312 36894 ft 471 kts 47°
2026-05-05 14:53 36.65986 16.17499 37063 ft 471 kts 47°
2026-05-05 14:53 36.68028 16.20681 37098 ft 470 kts 47°
2026-05-05 14:54 36.72100 16.27037 37100 ft 469 kts 47°
2026-05-05 14:54 36.76169 16.33398 37098 ft 469 kts 47°
2026-05-05 14:55 36.80230 16.39760 37104 ft 468 kts 47°
2026-05-05 14:55 36.84285 16.46123 37104 ft 468 kts 47°
2026-05-05 14:56 36.88334 16.52489 37101 ft 468 kts 47°
2026-05-05 14:56 36.92377 16.58858 37103 ft 468 kts 47°
2026-05-05 14:57 36.96417 16.65236 37107 ft 468 kts 47°
2026-05-05 14:57 37.00453 16.71619 37101 ft 468 kts 47°
2026-05-05 14:58 37.04578 16.77894 37097 ft 464 kts 42°
2026-05-05 14:58 37.09412 16.83144 37096 ft 457 kts 30°
2026-05-05 14:59 37.14723 16.87483 37102 ft 456 kts 28°
2026-05-05 14:59 37.20012 16.91792 37102 ft 456 kts 28°
2026-05-05 15:00 37.24473 16.95427 37103 ft 456 kts 28°
2026-05-05 15:00 37.30665 17.00474 37108 ft 457 kts 28°
2026-05-05 15:01 37.35994 17.04825 37112 ft 457 kts 28°
2026-05-05 15:01 37.41325 17.09184 37103 ft 455 kts 27°
2026-05-05 15:02 37.46607 17.13558 37106 ft 456 kts 31°
2026-05-05 15:02 37.51419 17.18839 37104 ft 463 kts 42°
2026-05-05 15:03 37.55545 17.25124 37104 ft 466 kts 46°
2026-05-05 15:03 37.59587 17.31517 37103 ft 466 kts 46°
2026-05-05 15:04 37.63617 17.37907 37112 ft 466 kts 47°
2026-05-05 15:04 37.67640 17.44314 37098 ft 465 kts 47°
2026-05-05 15:05 37.73659 17.53931 37092 ft 465 kts 47°
2026-05-05 15:06 37.77665 17.60352 37109 ft 465 kts 47°
2026-05-05 15:06 37.81667 17.66782 37092 ft 465 kts 47°
2026-05-05 15:07 37.85666 17.73220 37093 ft 465 kts 47°
2026-05-05 15:07 37.89667 17.79670 37097 ft 466 kts 47°
2026-05-05 15:08 37.93661 17.86125 37101 ft 466 kts 47°
2026-05-05 15:08 37.97695 17.92554 37106 ft 464 kts 44°
2026-05-05 15:09 38.01990 17.98614 36714 ft 460 kts 44°
2026-05-05 15:09 38.04122 18.01636 36152 ft 459 kts 44°
2026-05-05 15:09 38.06245 18.04649 35522 ft 458 kts 44°
2026-05-05 15:09 38.08364 18.07659 34890 ft 457 kts 44°
2026-05-05 15:10 38.10452 18.10628 34268 ft 456 kts 44°
2026-05-05 15:10 38.12562 18.13631 33569 ft 455 kts 43°
2026-05-05 15:10 38.14676 18.16641 32739 ft 457 kts 43°
2026-05-05 15:10 38.16799 18.19663 31884 ft 460 kts 44°
2026-05-05 15:11 38.18931 18.22703 31024 ft 463 kts 44°
2026-05-05 15:11 38.21078 18.25767 30200 ft 465 kts 44°
2026-05-05 15:11 38.23219 18.28830 29506 ft 462 kts 44°
2026-05-05 15:11 38.25340 18.31869 28881 ft 457 kts 44°
2026-05-05 15:12 38.27440 18.34879 28248 ft 452 kts 44°
2026-05-05 15:12 38.29518 18.37858 27632 ft 448 kts 44°
2026-05-05 15:12 38.31583 18.40821 27020 ft 445 kts 44°
2026-05-05 15:12 38.33624 18.43753 26427 ft 441 kts 44°
2026-05-05 15:13 38.35649 18.46662 25838 ft 437 kts 44°
2026-05-05 15:13 38.37660 18.49554 25263 ft 434 kts 44°
2026-05-05 15:13 38.39654 18.52425 24694 ft 431 kts 45°
2026-05-05 15:13 38.41635 18.55278 24153 ft 428 kts 45°
2026-05-05 15:14 38.43598 18.58110 23589 ft 425 kts 45°
2026-05-05 15:14 38.45546 18.60921 22991 ft 421 kts 45°
2026-05-05 15:14 38.47475 18.63709 22418 ft 416 kts 45°
2026-05-05 15:14 38.49380 18.66466 21846 ft 412 kts 45°
2026-05-05 15:15 38.51246 18.69168 21304 ft 408 kts 45°
2026-05-05 15:15 38.53116 18.71878 20752 ft 405 kts 45°
2026-05-05 15:15 38.54970 18.74566 20214 ft 401 kts 45°
2026-05-05 15:15 38.56803 18.77226 19680 ft 398 kts 45°
2026-05-05 15:16 38.58624 18.79872 19156 ft 394 kts 45°
2026-05-05 15:16 38.60426 18.82492 18646 ft 391 kts 45°
2026-05-05 15:16 38.62213 18.85092 18109 ft 387 kts 46°
2026-05-05 15:16 38.63980 18.87665 17569 ft 383 kts 46°
2026-05-05 15:17 38.65729 18.90214 17037 ft 379 kts 46°
2026-05-05 15:17 38.67462 18.92741 16502 ft 376 kts 46°
2026-05-05 15:17 38.69173 18.95238 16000 ft 372 kts 46°
2026-05-05 15:17 38.70873 18.97720 15478 ft 368 kts 46°
2026-05-05 15:18 38.72552 19.00174 15021 ft 364 kts 46°
2026-05-05 15:18 38.74204 19.02593 14752 ft 361 kts 46°
2026-05-05 15:18 38.75864 19.05028 14517 ft 363 kts 47°
2026-05-05 15:18 38.77517 19.07455 14279 ft 361 kts 47°
2026-05-05 15:19 38.79163 19.09874 14051 ft 358 kts 47°
2026-05-05 15:19 38.80795 19.12274 13803 ft 356 kts 47°
2026-05-05 15:19 38.82420 19.14666 13542 ft 355 kts 47°
2026-05-05 15:19 38.84037 19.17048 13280 ft 353 kts 47°
2026-05-05 15:20 38.85646 19.19420 13022 ft 351 kts 47°
2026-05-05 15:20 38.87247 19.21782 12764 ft 350 kts 47°
2026-05-05 15:20 38.88843 19.24138 12512 ft 349 kts 47°
2026-05-05 15:20 38.90430 19.26482 12256 ft 347 kts 47°
2026-05-05 15:21 38.92010 19.28817 12005 ft 346 kts 47°
2026-05-05 15:21 38.93563 19.31115 11763 ft 344 kts 47°
2026-05-05 15:21 38.95129 19.33434 11517 ft 343 kts 47°
2026-05-05 15:21 38.96689 19.35747 11273 ft 342 kts 47°
2026-05-05 15:22 38.98241 19.38049 11024 ft 340 kts 47°
2026-05-05 15:22 38.99792 19.40335 10789 ft 339 kts 47°
2026-05-05 15:22 39.01348 19.42601 10544 ft 337 kts 47°
2026-05-05 15:22 39.02887 19.44837 10426 ft 329 kts 47°
2026-05-05 15:23 39.04374 19.47002 10322 ft 317 kts 47°
2026-05-05 15:23 39.05803 19.49086 10212 ft 304 kts 47°
2026-05-05 15:23 39.06714 19.50417 10116 ft 296 kts 47°
2026-05-05 15:23 39.08067 19.52394 9784 ft 292 kts 47°
2026-05-05 15:24 39.09383 19.54318 9628 ft 283 kts 47°
2026-05-05 15:24 39.10702 19.56247 9502 ft 289 kts 47°
2026-05-05 15:24 39.12024 19.58181 9370 ft 287 kts 47°
2026-05-05 15:24 39.13341 19.60109 9239 ft 286 kts 47°
2026-05-05 15:25 39.14653 19.62032 9104 ft 285 kts 47°
2026-05-05 15:25 39.15963 19.63954 8983 ft 285 kts 47°
2026-05-05 15:25 39.17270 19.65871 8854 ft 285 kts 47°
2026-05-05 15:25 39.18656 19.67669 8719 ft 281 kts 33°
2026-05-05 15:26 39.20450 19.68607 8594 ft 280 kts
2026-05-05 15:26 39.22373 19.68411 8476 ft 279 kts 341°
2026-05-05 15:26 39.24022 19.67129 8351 ft 279 kts 317°
2026-05-05 15:26 39.25409 19.65383 8229 ft 279 kts 317°
2026-05-05 15:27 39.26886 19.63771 8102 ft 278 kts 323°
2026-05-05 15:27 39.28510 19.62424 7949 ft 278 kts 331°
2026-05-05 15:27 39.30193 19.61358 7802 ft 277 kts 336°
2026-05-05 15:27 39.31990 19.60459 7680 ft 278 kts 340°
2026-05-05 15:28 39.33876 19.60006 7555 ft 278 kts
2026-05-05 15:28 39.35765 19.60523 7255 ft 280 kts 24°
2026-05-05 15:28 39.37332 19.61970 7033 ft 275 kts 47°
2026-05-05 15:28 39.38321 19.63997 6928 ft 263 kts 69°
2026-05-05 15:29 39.38727 19.66240 6833 ft 251 kts 80°
2026-05-05 15:29 39.39020 19.68408 6741 ft 240 kts 79°
2026-05-05 15:29 39.39310 19.70476 6642 ft 227 kts 79°
2026-05-05 15:29 39.39586 19.72432 6549 ft 215 kts 79°
2026-05-05 15:30 39.39734 19.74320 6322 ft 210 kts 99°
2026-05-05 15:30 39.39126 19.75997 6077 ft 212 kts 135°
2026-05-05 15:30 39.37869 19.76926 5826 ft 210 kts 171°
2026-05-05 15:30 39.36451 19.76738 5578 ft 208 kts 207°
2026-05-05 15:31 39.35399 19.75516 5326 ft 206 kts 243°
2026-05-05 15:31 39.35066 19.73744 5092 ft 205 kts 267°
2026-05-05 15:31 39.34972 19.71912 4845 ft 204 kts 266°
2026-05-05 15:31 39.34854 19.70094 4593 ft 202 kts 265°
2026-05-05 15:32 39.34723 19.68293 4329 ft 201 kts 264°
2026-05-05 15:32 39.34585 19.66495 4101 ft 201 kts 265°
2026-05-05 15:32 39.34815 19.64742 4012 ft 202 kts 300°
2026-05-05 15:32 39.35816 19.63507 4004 ft 203 kts 337°
2026-05-05 15:33 39.37196 19.63303 4013 ft 204 kts 14°
2026-05-05 15:33 39.38398 19.64215 4004 ft 204 kts 52°
2026-05-05 15:33 39.38952 19.65875 4013 ft 204 kts 82°
2026-05-05 15:33 39.39134 19.67682 4006 ft 202 kts 85°
2026-05-05 15:34 39.39286 19.69484 4011 ft 204 kts 84°
2026-05-05 15:34 39.39466 19.71300 4012 ft 204 kts 82°
2026-05-05 15:34 39.39674 19.73117 4015 ft 205 kts 83°
2026-05-05 15:34 39.39735 19.75004 3930 ft 213 kts 90°
2026-05-05 15:35 39.39752 19.76915 3808 ft 211 kts 90°
2026-05-05 15:35 39.39777 19.78812 3683 ft 211 kts 89°
2026-05-05 15:35 39.39805 19.80714 3560 ft 211 kts 89°
2026-05-05 15:35 39.39833 19.82611 3437 ft 211 kts 89°
2026-05-05 15:36 39.39861 19.84504 3310 ft 211 kts 89°
2026-05-05 15:36 39.39889 19.86395 3188 ft 210 kts 88°
2026-05-05 15:36 39.40071 19.88275 3032 ft 210 kts 76°
2026-05-05 15:36 39.40489 19.90076 3003 ft 210 kts 73°
2026-05-05 15:37 39.40909 19.91862 2995 ft 204 kts 73°
2026-05-05 15:37 39.41307 19.93603 2987 ft 201 kts 73°
2026-05-05 15:37 39.41699 19.95327 2793 ft 199 kts 72°
2026-05-05 15:37 39.42442 19.96810 2341 ft 200 kts 35°
2026-05-05 15:38 39.43674 19.97350 2199 ft 180 kts 356°
2026-05-05 15:38 39.44820 19.96964 2101 ft 162 kts 339°
2026-05-05 15:38 39.45847 19.96522 1870 ft 152 kts 340°
2026-05-05 15:38 39.46836 19.96124 1693 ft 148 kts 341°
2026-05-05 15:39 39.47792 19.95755 1702 ft 140 kts 341°
2026-05-05 15:39 39.48718 19.95407 1713 ft 139 kts 341°
2026-05-05 15:39 39.49643 19.95058 1706 ft 138 kts 341°
2026-05-05 15:39 39.50572 19.94711 1712 ft 140 kts 341°
2026-05-05 15:40 39.51505 19.94360 1612 ft 140 kts 341°
2026-05-05 15:40 39.52421 19.93957 1424 ft 137 kts 335°
2026-05-05 15:40 39.53297 19.93495 1226 ft 137 kts 335°
2026-05-05 15:40 39.54194 19.93019 1052 ft 140 kts 335°
2026-05-05 15:41 39.55092 19.92581 847 ft 137 kts 342°
2026-05-05 15:41 39.56026 19.92293 673 ft 140 kts 343°
2026-05-05 15:41 39.56960 19.91997 477 ft 138 kts 345°
2026-05-05 15:41 39.57898 19.91758 316 ft 137 kts 350°
2026-05-05 15:42 39.58857 19.91565 156 ft 140 kts 347°
2026-05-05 15:42 39.59787 19.91319 23 ft 125 kts 347°
2026-05-05 15:42 39.60336 19.91179 20 ft 37 kts 348°
2026-05-05 15:42 39.60489 19.91154 18 ft 23 kts
2026-05-05 15:43 39.60601 19.91223 18 ft 0 kts 51°
2026-05-05 15:43 39.60610 19.91237 18 ft 1 kts 51°
2026-05-05 15:43 39.60612 19.91251 18 ft 4 kts 75°
2026-05-05 15:43 39.60620 19.91309 18 ft 9 kts 80°
2026-05-05 15:44 39.60629 19.91370 18 ft 3 kts 78°
2026-05-05 15:44 39.60630 19.91372 18 ft 0 kts 78°